Regional Weather Roundup
Issued by NWS

Home | Current Version | Previous Version | Graphics & Text | Print | Product List | Glossary On
Versions: 1 2 3 4 5 6 7 8 9 10 11 12 13 14 15 16 17 18 19 20 21 22 23 24 25 26 27 28 29 30 31 32 33 34 35 36 37 38 39 40 41 42 43 44 45 46 47 48 49 50
000
ASUS43 KMPX 092210
RWRMN
WEATHER ROUNDUP FOR MINNESOTA
NATIONAL WEATHER SERVICE TWIN CITIES/CHANHASSEN MN
400 PM CST FRI DEC 09 2016


NOTE: "FAIR" INDICATES FEW OR NO CLOUDS BELOW 12,000 FEET WITH NO
SIGNIFICANT WEATHER AND/OR OBSTRUCTIONS TO VISIBILITY. N/A MEANS
CURRENT SKY AND/OR WEATHER CONDITIONS ARE NOT AVAILABLE.

MNZ060>063-068>070-092300-
   Twin Cities Metro

CITY           SKY/WX    TMP DP  RH WIND       PRES   REMARKS
TWIN CITIES    MOCLDY    16   5  62 W10       30.50S WCI   4
ST PAUL        MOCLDY    17   6  62 W10       30.52S WCI   5
CRYSTAL        CLOUDY    17   5  59 W8        30.49S WCI   7
BLAINE         FLURRIES  18   9  68 W9        30.49R WCI   6
LAKEVILLE      PTCLDY    14   9  79 W7        30.50S WCI   4
EDEN PRAIRIE   PTCLDY    16   6  65 W8        30.49F WCI   5
SOUTH ST PAUL  MOCLDY    18   8  64 W5        30.50S WCI  11
LAKE ELMO      CLOUDY    19  10  68 W8        30.50R WCI   9
$$
MNZ001>005-007-008-013>017-022>024-027-028-092300-
   Northwest Minnesota

CITY           SKY/WX    TMP DP  RH WIND       PRES   REMARKS
BEMIDJI        CLOUDY     6  -3  68 NW12      30.45S WCI -10
HALLOCK        CLOUDY     0  -6  78 NW7       30.56R WCI -13
ROSEAU         CLOUDY     1  -6  71 W8        30.51S WCI -12
WARROAD        CLOUDY     1  -6  71 W8        30.49F WCI -12
THIEF RVR FALL FLURRIES   2  -3  80 NW10      30.52S WCI -14
CROOKSTON      CLOUDY     1  -6  71 NW10      30.56S WCI -14
FOSSTON        CLOUDY     3  -2  78 W7        30.49S WCI  -9
DETROIT LAKES  MOCLDY     3   0  85 NW6       30.49S WCI  -8
MOORHEAD       PTCLDY     3  -2  78 NW8       30.55F WCI -10
PARK RAPIDS    CLOUDY     7  -4  60 W8        30.45S WCI  -6
$$
MNZ006-009>011-018-025>026-092300-
   North Central Minnesota

CITY           SKY/WX    TMP DP  RH WIND       PRES   REMARKS
BAUDETTE       CLEAR      1  -8  66 W9        30.46F WCI -14
FLAG ISLAND    CLEAR      3   0  85 W10       30.47S WCI -12
INTL FALLS     CLOUDY     5  -5  63 W8        30.45S WCI  -8
WASKISH        CLOUDY     7   0  72 NW10      30.46S WCI  -8
BIG FORK       LGT SNOW   7   1  78 CALM      30.44S
LONGVILLE      CLOUDY     9   1  72 CALM      30.45S
GRAND RAPIDS   FLURRIES   8   0  69 NW10      30.46S WCI  -6
CRANE LAKE     CLOUDY     3  -2  78 CALM      30.47S
ORR            CLOUDY     5  -4  66 CALM      30.41S
COOK           CLOUDY     5  -2  72 W6        30.43F WCI  -6
$$
MNZ012-019>021-037-092300-
   Northeast Minnesota

CITY           SKY/WX    TMP DP  RH WIND       PRES   REMARKS
DULUTH         LGT SNOW   9   0  67 NW10      30.42S WCI  -5
ELY            CLOUDY     5  -2  72 W7        30.41R WCI  -7
HIBBING        CLOUDY     5  -4  66 NW8       30.43S WCI  -8
EVELETH        MOCLDY     7  -3  63 NW10      30.44S WCI  -8
DULUTH HARBOR  CLOUDY    14   1  57 NW9       30.50S WCI   2
TWO HARBORS    CLEAR      9   0  66 W5        30.43S WCI   0
SILVER BAY     CLOUDY     9   0  66 W6        30.42R HAZE    WCI  -1
GRAND MARAIS     N/A     16   5  62 NW7       30.42S WCI   6
G MARAIS ARPRT CLOUDY     9   0  66 W5        30.32S WCI   0
$$
MNZ029>031-032-039>041-046>048-054>057-064-092300-
   West Central Minnesota

CITY           SKY/WX    TMP DP  RH WIND       PRES   REMARKS
FERGUS FALLS   CLOUDY     3  -2  78 N9        30.57S WCI -11
WHEATON        MOCLDY     9   1  72 NW8       30.56S WCI  -4
MORRIS         MOCLDY     7  -2  66 NW10      30.51S WCI  -8
ALEXANDRIA     MOCLDY     5  -3  69 NW9       30.49R WCI  -9
ELBOW LAKE     LGT SNOW   5   0  81 W9        30.51S WCI  -9
WADENA         CLOUDY     7  -2  66 W7        30.47S WCI  -5
GLENWOOD       CLEAR      3   0  85 W8        30.49S WCI -10
APPLETON       MOCLDY     9   0  66 NW9       30.54R WCI  -5
BENSON         PTCLDY     7   0  72 N7        30.52S WCI  -5
ORTONVILLE     CLOUDY     7  -2  66 CALM      30.53R
MADISON        MOCLDY    10   3  72 NW9       30.54R WCI  -2
WILLMAR        FAIR      10   3  72 CALM      30.52S
$$
MNZ033>034-036-042>043-049>051-058-059-092300-
   Central Minnesota

CITY           SKY/WX    TMP DP  RH WIND       PRES   REMARKS
ST CLOUD       MOCLDY    12   3  67 NW8       30.49S WCI   0
PAYNESVILLE    CLEAR     10   3  74 W8        30.50R WCI  -3
AITKIN         CLOUDY    12   0  57 NW5       30.44F WCI   4
PINE RIVER     CLOUDY     9   1  72 W3        30.48S
BRAINERD       FLURRIES  10   2  69 NW8       30.46S WCI  -2
STAPLES        CLOUDY     7  -2  66 W6        30.47S WCI  -3
LONG PRAIRIE   CLOUDY     9   0  66 W6        30.48S WCI  -1
LITTLE FALLS   CLOUDY    12   1  62 W7        30.48S WCI   2
LITCHFIELD     CLEAR     10   3  72 W7        30.50S WCI   0
BUFFALO        PTCLDY    13   5  70 W8        30.51S WCI   2
MAPLE LAKE     PTCLDY    14   6  71 W8        30.50S WCI   3
HUTCHINSON     CLEAR     12   6  76 W9        30.51S WCI   0
$$
MNZ037-044-045-052-053-092300-
   East Central Minnesota

CITY           SKY/WX    TMP DP  RH WIND       PRES   REMARKS
PRINCETON      CLOUDY    16   7  67 W8        30.48S WCI   5
MORA           MOCLDY    14   5  67 W6        30.49S WCI   5
CAMBRIDGE      FLURRIES  16   7  67 W9        30.47S WCI   4
RUSH CITY      CLOUDY    14   5  67 W7        30.48S WCI   4
MOOSE LAKE     CLOUDY    12   5  73 NW7       30.45S HAZE    WCI   2
HINCKLEY       CLOUDY    16   7  67 W9        30.47S WCI   4
CLOQUET        CLOUDY    10   1  67 W5        30.43S WCI   2
MCGREGOR       CLOUDY    10   1  67 NW7       30.46S WCI   0
$$
MNZ071>073-080-081-089-090-097-098-092300-
   Southwest Minnesota

CITY           SKY/WX    TMP DP  RH WIND       PRES   REMARKS
MONTEVIDEO     CLEAR     10   1  67 NW7       30.54S WCI   0
GRANITE FALLS  MOCLDY    12   4  70 W9        30.54S WCI  -1
CANBY          MOCLDY    11   2  67 W8        30.53S WCI  -1
MARSHALL       CLEAR     11   2  67 NW8       30.52R WCI  -1
REDWOOD FALLS  CLOUDY    11   2  67 NW8       30.52S WCI  -1
OLIVIA         PTCLDY    10   5  79 NW7       30.51S WCI   0
PIPESTONE      PTCLDY    12   7  79 N3        30.45F HAZE
WINDOM         CLOUDY    16   7  67 CALM      30.49R
WORTHINGTON    FLURRIES  14   7  73 W5        30.48R WCI   6
JACKSON        CLOUDY    16   5  62 NW5       30.49R WCI   9
TRACY          CLOUDY    13   7  76 NW6       30.50S WCI   4
SLAYTON        CLOUDY    13   6  76 W5        30.47S WCI   5
$$
MNZ065>067-074>077-082>085-091>093-092300-
   South Central Minnesota

CITY           SKY/WX    TMP DP  RH WIND       PRES   REMARKS
MANKATO        CLEAR     14   8  77 NW9       30.51S WCI   2
NEW ULM        MOCLDY    12   7  79 NW7       30.51F WCI   2
ST JAMES       LGT SNOW  14   9  79 NW3       30.52S
FAIRMONT       FLURRIES  16   9  74 NW5       30.51S WCI   9
GLENCOE        PTCLDY    14   8  78 W9        30.50S WCI   2
FARIBAULT      FLURRIES  16  10  79 W7        30.50F WCI   6
OWATONNA       FLURRIES  16   9  73 W7        30.49F WCI   6
WASECA         MOCLDY    18  12  79 W8        30.51S WCI   7
ALBERT LEA     PTCLDY    19  12  73 W6        30.48F WCI  11
$$
MNZ078>079-086>088-094>096-092300-
   Southeast Minnesota

CITY           SKY/WX    TMP DP  RH WIND       PRES   REMARKS
ROCHESTER      CLOUDY    14  10  84 W9        30.48R WCI   2
RED WING       PTCLDY    18   9  68 W9        30.50R WCI   6
STANTON        FLURRIES  18  11  74 W7        30.50S WCI   8
DODGE CENTER   FLURRIES  16  10  79 W9        30.48S WCI   4
WINONA         MOCLDY    21  12  68 W5        30.52S WCI  15
AUSTIN         CLEAR     18  10  73 W8        30.49S WCI   7
PRESTON        PTCLDY    15   9  78 W7        30.49R WCI   5
$$
ABBREVIATIONS USED IN REMARKS
   TC - TEMPERATURES IN CELSIUS
  WCI - WIND CHILL INDEX
   HX - HEAT INDEX
  VSB - VISIBILITY
$$




USA.gov is the U.S. government's official web portal to all federal, state and local government web resources and services.